Miscellaneous Local Product
Issued by NWS Hastings, NE

Home | Current Version | Previous Version | Graphics & Text | Print | Product List | Glossary On
Versions: 1 2 3 4 5 6 7 8 9 10 11 12 13 14 15 16 17 18 19 20 21 22 23 24 25 26 27 28 29 30 31 32 33 34 35 36 37 38 39 40 41 42 43 44 45 46 47 48 49 50
000
AXUS43 KGID 301702
MISGRI

GID CWA HOURLY WEATHER ROUNDUP
NATIONAL WEATHER SERVICE HASTINGS NE
1200 PM CDT SUN AUG 30 2015

NOTE: "FAIR" INDICATES FEW OR NO CLOUDS BELOW 12,000 FEET WITH NO
SIGNIFICANT WEATHER AND/OR OBSTRUCTIONS TO VISIBILITY.

...SOUTH CENTRAL NEBRASKA...

CITY           SKY/WX    TMP DP  RH WIND       PRES   REMARKS
GRAND ISLAND   NOT AVBL
HASTINGS       SUNNY     73  64  73 S8        30.05F
KEARNEY        SUNNY     77  63  61 S12       30.04S
ORD            SUNNY     80  61  52 S13       29.99F
YORK           CLOUDY    66  64  94 S9        30.07S
AURORA         CLOUDY    69  66  88 S10       30.06S
LEXINGTON      SUNNY     80  62  54 SE7       30.03S
HOLDREGE       SUNNY     75  60  60 S10       30.04S
HEBRON         CLOUDY    66  64  93 S8        30.08S

...NEBRASKA PANHANDLE...

CITY           SKY/WX    TMP DP  RH WIND       PRES   REMARKS
CHADRON        MOSUNNY   89  47  23 SW9       29.88F
ALLIANCE       MOSUNNY   85  49  28 S16       29.98S
SCOTTSBLUFF    MOSUNNY   80  48  32 SE7       29.98S
SIDNEY         SUNNY     85  47  26 S18       30.04S

...WESTERN AND NORTH CENTRAL NEBRASKA...

CITY           SKY/WX    TMP DP  RH WIND       PRES   REMARKS
VALENTINE      MOSUNNY   88  47  24 SW21G33   29.91F
AINSWORTH      SUNNY     85  52  32 S15       29.96F
ONEILL         SUNNY     82  63  52 S10       29.98S
BROKEN BOW     SUNNY     82  59  45 S9        30.00F
IMPERIAL       SUNNY     86  48  26 S17       30.03F
NORTH PLATTE   SUNNY     84  56  38 S7        30.01S
MCCOOK         SUNNY     89  48  24 S15       30.02S

...EASTERN NEBRASKA...

CITY           SKY/WX    TMP DP  RH WIND       PRES   REMARKS
NORFOLK        CLOUDY    70  65  84 S14       30.02S
TEKAMAH        CLOUDY    65  63  93 S10       30.06S
COLUMBUS       CLOUDY    66  59  77 S8        30.06R
ALBION         SUNNY     72  64  77 SE12      30.02S
OMAHA EPPLEY   CLOUDY    69  64  84 S7        30.07S
OFFUTT AFB     CLOUDY    69  64  84 S9        30.07S
MILLARD        CLOUDY    67  64  87 S5        30.07S
LINCOLN        CLOUDY    69  64  84 S7        30.07F
NEBRASKA CITY  CLOUDY    67  67  98 S6        30.09F
BEATRICE       PTSUNNY   69  65  87 S8        30.09S
FALLS CITY     CLOUDY    69  66  90 CALM      30.08S

...NORTHERN KANSAS...

CITY           SKY/WX    TMP DP  RH WIND       PRES   REMARKS
GOODLAND       SUNNY     84  47  27 S21G29    30.07F
HILL CITY      SUNNY     85  60  42 E7        30.05S
NORTON         SUNNY     81  52  36 SE10      30.03F
PHILLIPSBURG   SUNNY     81  63  54 SE7       30.05F
SMITH CENTER   SUNNY     73  63  68 SE10      30.07F
HAYS           SUNNY     79  57  47 SE9       30.06S
RUSSELL        SUNNY     76  62  62 SE8       30.06F
CONCORDIA      CLOUDY    67  63  87 S9        30.09F
SALINA         CLOUDY    70  63  78 S8        30.09F
TOPEKA         CLOUDY    72  69  90 CALM      30.07F



USA.gov is the U.S. government's official web portal to all federal, state and local government web resources and services.